Cloud_Cover
0 0 0 4 5 63 59 34 25 86 6 0 0 0 3 5 5 0 1 100 100 100 100 47 5 4 24 100 100 98 100 100 100 100 100 100 100 100
0 0 0 0 5 25 99 79 41 55 79 3 0 0 0 1 5 5 5 5 100 100 100 100 92 15 5 30 85 100 98 99 100 100 100 100 100 100
5 1 0 0 0 2 9 72 100 98 24 4 0 0 0 0 1 5 5 5 10 67 100 100 100 100 100 86 96 94 100 100 81 100 100 100 100 100
3 0 0 0 0 0 0 2 50 19 81 5 5 5 5 2 0 0 0 5 15 65 15 23 100 100 100 100 98 100 98 96 100 100 100 100 100 100
3 0 0 0 0 0 0 0 0 0 2 25 17 11 2 5 54 0 1 0 0 4 15 5 7 97 100 100 100 100 100 99 100 100 100 100 100 100
5 2 2 0 0 0 0 0 0 0 2 10 5 5 5 6 5 12 5 0 0 0 0 0 5 46 100 100 100 100 100 77 100 100 100 100 100 100
1 0 1 0 0 0 0 0 0 0 4 48 56 8 5 11 5 5 5 5 2 1 5 2 3 83 100 100 16 55 100 78 28 66 100 95 95 100
0 0 0 0 2 5 5 20 5 41 60 96 64 87 9 5 5 5 5 5 5 0 5 5 63 100 67 100 94 5 4 8 100 100 18 100 100 100
0 3 0 0 0 50 100 100 100 34 5 6 8 6 5 5 5 5 5 5 5 5 4 5 5 5 11 74 69 5 5 0 0 20 5 98 100 100
1 0 4 0 0 2 100 100 100 100 99 100 18 3 2 0 5 5 5 28 5 5 5 46 7 41 5 5 5 4 5 5 7 65 60 89 100 100
5 5 5 5 0 2 22 99 100 100 100 100 100 75 10 5 5 5 5 9 5 5 13 5 3 5 37 5 1 5 5 74 100 100 100 100 100 100
65 75 66 0 0 0 18 49 77 84 100 100 100 100 91 92 98 5 5 5 10 14 30 73 13 54 78 46 8 0 42 74 100 100 100 100 100 100
5 4 2 0 0 0 4 6 6 100 100 100 100 100 100 100 100 90 5 5 40 85 3 6 97 16 86 85 100 100 100 100 100 100 100 100 100 100
77 41 5 5 0 0 2 5 21 80 100 100 100 100 100 100 100 79 5 5 5 3 0 4 80 58 98 100 97 88 79 97 99 100 100 100 100 100
100 90 12 5 0 5 5 5 5 98 100 100 100 100 100 100 100 90 26 5 5 5 4 4 77 83 100 100 100 100 99 99 99 100 100 100 100 100
100 76 98 29 5 5 5 4 5 5 85 99 86 40 11 38 22 10 12 26 79 95 20 5 48 93 100 100 100 100 100 100 100 79 100 100 100 100
100 100 99 98 66 5 5 5 5 5 5 7 16 14 7 12 6 19 16 8 6 98 100 86 5 6 75 100 100 100 100 100 100 100 100 100 100 100
100 100 100 99 90 100 72 8 5 32 39 29 5 5 5 18 42 78 41 43 48 79 94 100 92 96 78 100 100 100 100 100 99 100 100 100 100 100
100 100 100 100 91 100 100 100 100 99 100 10 22 19 6 5 100 100 100 74 100 100 100 100 90 86 100 100 70 100 100 100 100 100 100 100 100 99
100 100 100 100 100 100 100 100 100 93 95 65 47 17 47 94 98 100 100 100 100 100 100 100 100 98 70 96 100 85 100 100 100 100 100 100 100 100
96 95 88 99 100 100 100 100 100 100 100 100 97 82 97 100 100 100 99 96 83 97 100 100 97 82 98 100 100 84 100 100 100 97 83 100 99 100
83 84 95 98 100 100 100 100 100 100 100 99 84 98 86 97 97 76 78 98 100 100 95 12 41 86 100 100 100 100 100 100 100 100 100 99 89 92
100 100 90 75 100 100 100 100 92 97 99 95 98 93 97 100 100 100 95 100 95 88 100 98 96 100 100 100 100 100 100 100 100 100 100 100 100 94